AirNav   Air Wisconsin pilot careers
 
 1247 users online  

KFZI Fostoria Metropolitan Airport
Fostoria, Ohio, USA

GOING TO FOSTORIA?


FAA INFORMATION EFFECTIVE 08 NOVEMBER 2018

Location

FAA Identifier: FZI
Lat/Long: 41-11-27.0000N / 083-23-35.1000W
41-11.450000N / 083-23.585000W
41.1908333 / -83.3930833
(estimated)
Elevation: 751.6 ft. / 229.1 m (surveyed)
Variation: 05W (1985)
From city: 2 miles NE of FOSTORIA, OH
Time zone: UTC -5 (UTC -4 during Daylight Saving Time)
Zip code: 44830

Airport Operations

Airport use: Open to the public
Activation date: 08/1972
Control tower: no
ARTCC: CLEVELAND CENTER
FSS: CLEVELAND FLIGHT SERVICE STATION
NOTAMs facility: CLE (NOTAM-D service available)
Attendance: MON-SAT 0800-1700
Wind indicator: lighted
Segmented circle: yes
Lights: ACTIVATE MIRL RY 09/27 AND REIL RYS 09 & 27-CTAF.
Beacon: white-green (lighted land airport)
Operates sunset to sunrise.

Airport Communications

CTAF/UNICOM: 122.7
WX AWOS-3: 124.625 (419-436-0053)
TOLEDO APPROACH: 126.1
TOLEDO DEPARTURE: 126.1
WX AWOS-3 at 16G (10 nm SE): 127.175 (419-443-1043)
WX AWOS-3 at 1G0 (16 nm NW): 120.725 (419-354-1415)
WX ASOS at FDY (16 nm SW): 132.85 (419-427-8524)
WX AWOS-3 at S24 (17 nm E): 119.575 (419-547-6932)

Nearby radio navigation aids

VOR radial/distance  VOR name  Freq  Var
VWVr147/19.2WATERVILLE VOR/DME113.1002W
FBCr051/21.7FLAG CITY VORTAC108.2002W
BUDr342/(37.6)BUCKEYE VOR109.8005W

 
NDB name  Hdg/Dist  Freq  Var  ID
TIFFIN311/9.926905WTII - .. ..
PORT CLINTON237/30.742307WPCW .--. -.-. .--

Airport Services

Fuel available: 100LL JET-A+
Parking: tiedowns
Airframe service: MAJOR
Powerplant service: MAJOR

Runway Information

Runway 9/27

Dimensions: 5005 x 100 ft. / 1526 x 30 m
Surface: asphalt, in good condition
Weight bearing capacity: 
Single wheel: 30.0
Double wheel: 35.0
Double tandem: 52.0
Runway edge lights: medium intensity
Runway edge markings: RWY 27 MARKINGS ARE FADED. BLACKED OUT OLD TEMPORARY MARKINGS ARE CONFUSING AND LOOK LIKE A DISPLACEMENT. NO DISPLACEMENT ON THIS RUNWAY END.
RUNWAY 9  RUNWAY 27
Latitude: 41-11.449085N41-11.450857N
Longitude: 083-24.129653W083-23.038562W
Elevation: 751.4 ft.751.5 ft.
Gradient: 0.1%0.1%
Traffic pattern: leftleft
Runway heading: 095 magnetic, 090 true275 magnetic, 270 true
Markings: nonprecision, in fair conditionnonprecision, in fair condition
Visual slope indicator: 4-light PAPI on left (3.00 degrees glide path)4-light PAPI on left (3.00 degrees glide path)
Runway end identifier lights: yesyes
Touchdown point: yes, no lightsyes, no lights
Obstructions: 80 ft. trees, 3500 ft. from runway, 185 ft. right of centerline, 41:1 slope to clear15 ft. road, 710 ft. from runway, 34:1 slope to clear

Airport Ownership and Management from official FAA records

Ownership: Publicly-owned
Owner: CITY OF FOSTORIA
4495 N. SENECA COUNTY RD 25
FOSTORIA, OH 44830
Phone 419-435-2561
Manager: DAVID SNIFFEN
4495 N. SENECA COUNTY RD. 25
FOSTORIA, OH 44830
Phone 419-435-0157

Airport Operational Statistics

Aircraft based on the field: 15
Single engine airplanes: 13
Multi engine airplanes: 1
Jet airplanes: 1
    
Aircraft operations: avg 22/day *
51% transient general aviation
44% local general aviation
5% air taxi
* for 12-month period ending 21 August 2015

Instrument Procedures

NOTE: All procedures below are presented as PDF files. If you need a reader for these files, you should download the free Adobe Reader.

NOT FOR NAVIGATION. Please procure official charts for flight.
FAA instrument procedures published for use from 8 November 2018 at 0901Z to 6 December 2018 at 0900Z.

 
IAPs - Instrument Approach Procedures
RNAV (GPS) RWY 09   download (220KB)
RNAV (GPS) RWY 27   download (195KB)
VOR-A   download (155KB)
NOTE: Special Alternate Minimums apply   download (34KB)
NOTE: Special Take-Off Minimums/Departure Procedures apply   download (164KB)

Other nearby airports with instrument procedures:

16G - Seneca County Airport (10 nm SE)
14G - Fremont Airport (13 nm NE)
1G0 - Wood County Airport (16 nm NW)
KFDY - Findlay Airport (16 nm SW)
S24 - Sandusky County Regional Airport (17 nm E)
56D - Wyandot County Airport (19 nm S)
 
Loc | Ops | Rwys | IFR | FBO | Links
Com | Nav | Svcs | Stats | Notes


 
Area around KFZI (Fostoria Metropolitan Airport)
 
Road maps at: MapQuest Bing Google
 
Aerial photo
WARNING: Photo may not be current or correct
Aerial photo of KFZI (Fostoria Metropolitan Airport)
Photo taken 01-Nov-2009

Do you have a better or more recent aerial photo of Fostoria Metropolitan Airport that you would like to share? If so, please send us your photo.

 
Sectional chart

 
Airport distance calculator
Flying to Fostoria Metropolitan Airport? Find the distance to fly.

From to KFZI

Sunrise and sunset
Times for 20-Nov-2018
 Local
(UTC-5)
 Zulu
(UTC)
Morning civil twilight06:5911:59
Sunrise07:2812:28
Sunset17:1022:10
Evening civil twilight17:4022:40

Current date and time
Zulu (UTC)  20-Nov-2018 22:38:41
Local (UTC-5)  20-Nov-2018 17:38:41
 
METAR
KFDY 
16nm SW 
202153Z AUTO 25004KT 10SM OVC040 01/M03 A3016 RMK AO2 SLP217 T00111033
KTDZ 
23nm N 
202153Z AUTO 23008KT 10SM FEW042 01/M07 A3015 RMK AO2 SLP216 T00111067
KOWX 
28nm W 
202215Z AUTO 24006KT 10SM OVC042 00/M03 A3018 RMK AO1
KTOL 
30nm NW 
202152Z 23010KT 10SM SCT043 02/M08 A3014 RMK AO2 SLP212 T00171078 $
KPCW 
31nm NE 
202215Z AUTO 24006KT 10SM FEW043 M01/M06 A3014 RMK AO2
TAF
KFDY 
16nm SW 
201726Z 2018/2118 31008KT P6SM SCT060 FM210700 24015KT P6SM BKN110 FM211300 25012KT P6SM OVC030
NOTAMs
Click for the latest NOTAMs
NOTAMs are issued by the DoD/FAA and will open in a separate window not controlled by AirNav.

 

 
 

FBO, Fuel Providers, and Aircraft Ground Support

  
 Business Name 
 
 Contact 
 
 Services / Description 
 
Fuel Prices
 
Comments
  
Fostoria Metro Aviation 419-435-0157
no information available

If you are affiliated with Fostoria Metro Aviation and would like to show here your services, contact info, web link, logo, and more, click here
100LL Jet A
FS $4.96 $3.98 
 Updated 07-Nov-2018
 
   1 read write
FS=Full service
Update Fuel Prices
 

Would you like to see your business listed on this page?

 If your business provides an interesting product or service to pilots, flight crews, aircraft, or users of the Fostoria Metropolitan Airport, you should consider listing it here.  To start the listing process, click on the button below
 
Add a business
 

Other Pages about Fostoria Metropolitan Airport

Update a link
 
Copyright © AirNav, LLC. All rights reserved. Privacy Policy  Contact